RYR92MY EDJA-LPPR

Flight info

Callsign RYR92MY
Flight time 2h 27m
Altitude 37000
Route UMTEX2B UMTEX Y100 TRA DCT LUTIX/N0449F390 DCT BENOT DCT NEMOS DCT NINTU DCT MEBAK DCT REPSI DCT LERGA DCT MINSO DCT NARAK DCT AGN DCT LATEK DCT PPN DCT MIRPO DCT DGO DCT NEA DCT ZMR DCT ADORO DCT CANAR DCT INKIT
Aircraft B38M/M-SDE1FGHILORVWXY/HB1

Departure

Time 2026-04-22 16:23
Airport Memmingen Allgau Airport (EDJA)

Arrival

Time 2026-04-22 18:50
Airport Francisco de Sá Carneiro Airport (LPPR)
Time Latitude Longitude Altitude Speed Heading
2026-04-22 15:51 47.98760 10.22879 2080 ft 0 kts 53°
2026-04-22 16:13 47.98760 10.22878 2080 ft 2 kts 53°
2026-04-22 16:13 47.98743 10.22858 2080 ft 4 kts
2026-04-22 16:13 47.98720 10.22869 2080 ft 4 kts 343°
2026-04-22 16:14 47.98709 10.22873 2080 ft 1 kts 350°
2026-04-22 16:14 47.98708 10.22873 2080 ft 0 kts 350°
2026-04-22 16:18 47.98710 10.22872 2080 ft 0 kts 341°
2026-04-22 16:18 47.98710 10.22871 2080 ft 0 kts 331°
2026-04-22 16:19 47.98711 10.22869 2080 ft 0 kts 310°
2026-04-22 16:19 47.98710 10.22855 2080 ft 4 kts 259°
2026-04-22 16:19 47.98699 10.22765 2080 ft 12 kts 259°
2026-04-22 16:19 47.98668 10.22718 2080 ft 7 kts 191°
2026-04-22 16:20 47.98589 10.22717 2082 ft 15 kts 180°
2026-04-22 16:20 47.98479 10.22650 2089 ft 20 kts 232°
2026-04-22 16:20 47.98409 10.22536 2092 ft 12 kts 188°
2026-04-22 16:20 47.98354 10.22587 2092 ft 5 kts 129°
2026-04-22 16:21 47.98346 10.22630 2091 ft 2 kts 71°
2026-04-22 16:21 47.98370 10.22665 2091 ft 5 kts 54°
2026-04-22 16:21 47.98370 10.22668 2091 ft 0 kts 59°
2026-04-22 16:22 47.98566 10.23155 2084 ft 92 kts 59°
2026-04-22 16:22 47.99012 10.24274 2073 ft 157 kts 59°
2026-04-22 16:22 47.99639 10.25830 2410 ft 187 kts 63°
2026-04-22 16:23 48.00891 10.29280 4155 ft 191 kts 57°
2026-04-22 16:23 48.01634 10.31059 4553 ft 212 kts 59°
2026-04-22 16:23 48.02401 10.32914 4778 ft 219 kts 59°
2026-04-22 16:24 48.03201 10.34878 4940 ft 222 kts 61°
2026-04-22 16:24 48.03373 10.39326 5182 ft 227 kts 115°
2026-04-22 16:24 48.02341 10.41107 6093 ft 230 kts 143°
2026-04-22 16:25 48.00811 10.41912 7013 ft 242 kts 175°
2026-04-22 16:25 47.97830 10.39644 8710 ft 257 kts 227°
2026-04-22 16:25 47.96608 10.37656 9426 ft 268 kts 231°
2026-04-22 16:26 47.95847 10.35022 9876 ft 288 kts 261°
2026-04-22 16:26 47.95527 10.31991 10435 ft 304 kts 260°
2026-04-22 16:26 47.95127 10.28805 10879 ft 323 kts 260°
2026-04-22 16:26 47.94698 10.25442 11407 ft 337 kts 260°
2026-04-22 16:27 47.94252 10.21982 12170 ft 341 kts 260°
2026-04-22 16:27 47.93794 10.18444 12982 ft 344 kts 260°
2026-04-22 16:27 47.93336 10.14928 13745 ft 348 kts 261°
2026-04-22 16:27 47.92874 10.11377 14493 ft 350 kts 260°
2026-04-22 16:28 47.92410 10.07848 15177 ft 354 kts 260°
2026-04-22 16:28 47.91913 10.04192 15874 ft 357 kts 260°
2026-04-22 16:28 47.91418 10.00553 16540 ft 359 kts 261°
2026-04-22 16:28 47.90926 9.96938 17172 ft 362 kts 261°
2026-04-22 16:29 47.90417 9.93200 17796 ft 365 kts 261°
2026-04-22 16:29 47.89908 9.89479 18372 ft 368 kts 261°
2026-04-22 16:29 47.89394 9.85730 18954 ft 370 kts 261°
2026-04-22 16:29 47.88664 9.82030 19519 ft 375 kts 251°
2026-04-22 16:30 47.88055 9.79618 19880 ft 377 kts 252°
2026-04-22 16:30 47.86841 9.74746 20538 ft 381 kts 252°
2026-04-22 16:30 47.85916 9.71045 21050 ft 383 kts 252°
2026-04-22 16:30 47.84969 9.67256 21559 ft 386 kts 252°
2026-04-22 16:31 47.84030 9.63505 22069 ft 388 kts 253°
2026-04-22 16:31 47.83412 9.59672 22529 ft 386 kts 264°
2026-04-22 16:31 47.82955 9.55713 22986 ft 390 kts 263°
2026-04-22 16:31 47.82477 9.51735 23457 ft 392 kts 263°
2026-04-22 16:32 47.81995 9.47732 23921 ft 394 kts 263°
2026-04-22 16:32 47.81510 9.43711 24393 ft 396 kts 263°
2026-04-22 16:32 47.81019 9.39659 24864 ft 398 kts 263°
2026-04-22 16:32 47.80519 9.35547 25325 ft 400 kts 263°
2026-04-22 16:33 47.80030 9.31531 25766 ft 401 kts 263°
2026-04-22 16:33 47.79522 9.27382 26215 ft 403 kts 263°
2026-04-22 16:33 47.79019 9.23277 26642 ft 404 kts 263°
2026-04-22 16:33 47.78513 9.19158 27061 ft 405 kts 263°
2026-04-22 16:34 47.78003 9.15031 27463 ft 407 kts 263°
2026-04-22 16:34 47.77491 9.10889 27846 ft 408 kts 264°
2026-04-22 16:34 47.76979 9.06771 28232 ft 409 kts 264°
2026-04-22 16:34 47.76462 9.02619 28601 ft 411 kts 264°
2026-04-22 16:35 47.75939 8.98436 28961 ft 412 kts 264°
2026-04-22 16:35 47.75414 8.94244 29325 ft 413 kts 264°
2026-04-22 16:35 47.74884 8.90034 29665 ft 415 kts 264°
2026-04-22 16:35 47.74352 8.85811 30015 ft 416 kts 264°
2026-04-22 16:36 47.73817 8.81583 30339 ft 417 kts 264°
2026-04-22 16:36 47.73278 8.77334 30622 ft 420 kts 264°
2026-04-22 16:36 47.72734 8.73064 30882 ft 422 kts 264°
2026-04-22 16:36 47.72364 8.70162 31100 ft 423 kts 264°
2026-04-22 16:37 47.71814 8.65864 31387 ft 425 kts 264°
2026-04-22 16:37 47.71259 8.61539 31642 ft 428 kts 264°
2026-04-22 16:37 47.70699 8.57186 31916 ft 429 kts 264°
2026-04-22 16:37 47.70136 8.52824 32169 ft 431 kts 264°
2026-04-22 16:38 47.69570 8.48445 32424 ft 433 kts 264°
2026-04-22 16:38 47.68739 8.44121 32748 ft 441 kts 250°
2026-04-22 16:38 47.67151 8.40203 33099 ft 448 kts 240°
2026-04-22 16:38 47.65369 8.36407 33372 ft 448 kts 240°
2026-04-22 16:39 47.63577 8.32625 33686 ft 449 kts 240°
2026-04-22 16:39 47.61766 8.28854 33998 ft 449 kts 240°
2026-04-22 16:39 47.59949 8.25103 34321 ft 448 kts 239°
2026-04-22 16:39 47.58130 8.21356 34630 ft 448 kts 239°
2026-04-22 16:40 47.56308 8.17611 34885 ft 448 kts 239°
2026-04-22 16:40 47.54484 8.13869 35131 ft 449 kts 239°
2026-04-22 16:40 47.50820 8.06365 35634 ft 450 kts 239°
2026-04-22 16:41 47.48984 8.02613 35856 ft 451 kts 239°
2026-04-22 16:41 47.47147 7.98863 36084 ft 451 kts 239°
2026-04-22 16:41 47.45304 7.95107 36330 ft 451 kts 239°
2026-04-22 16:41 47.43462 7.91357 36541 ft 451 kts 239°
2026-04-22 16:42 47.41619 7.87612 36747 ft 451 kts 239°
2026-04-22 16:42 47.39780 7.83878 37071 ft 448 kts 239°
2026-04-22 16:42 47.37950 7.80170 37365 ft 446 kts 238°
2026-04-22 16:42 47.36126 7.76476 37584 ft 445 kts 238°
2026-04-22 16:43 47.34302 7.72789 37783 ft 445 kts 238°
2026-04-22 16:43 47.32479 7.69109 37956 ft 445 kts 238°
2026-04-22 16:43 47.30655 7.65431 38093 ft 445 kts 238°
2026-04-22 16:43 47.28852 7.61799 38255 ft 445 kts 238°
2026-04-22 16:44 47.26997 7.58070 38407 ft 445 kts 238°
2026-04-22 16:44 47.25167 7.54393 38520 ft 445 kts 238°
2026-04-22 16:44 47.23335 7.50718 38628 ft 445 kts 238°
2026-04-22 16:44 47.21525 7.47095 38730 ft 445 kts 238°
2026-04-22 16:45 47.19669 7.43379 38875 ft 445 kts 238°
2026-04-22 16:45 47.17837 7.39718 38976 ft 445 kts 238°
2026-04-22 16:45 47.15947 7.36106 39130 ft 445 kts 236°
2026-04-22 16:46 47.12085 7.28969 39153 ft 446 kts 236°
2026-04-22 16:46 47.08246 7.21849 39148 ft 445 kts 236°
2026-04-22 16:47 47.04416 7.14797 39144 ft 445 kts 236°
2026-04-22 16:47 47.00557 7.07729 39143 ft 444 kts 236°
2026-04-22 16:48 46.96700 7.00683 39146 ft 443 kts 236°
2026-04-22 16:48 46.92845 6.93656 39132 ft 442 kts 236°
2026-04-22 16:49 46.88986 6.86655 39136 ft 442 kts 236°
2026-04-22 16:49 46.85097 6.79620 39139 ft 442 kts 236°
2026-04-22 16:50 46.81265 6.72705 39132 ft 441 kts 236°
2026-04-22 16:50 46.77403 6.65751 39135 ft 441 kts 236°
2026-04-22 16:51 46.73546 6.58826 39128 ft 440 kts 236°
2026-04-22 16:51 46.69687 6.51913 39118 ft 439 kts 236°
2026-04-22 16:52 46.65832 6.45027 39117 ft 438 kts 236°
2026-04-22 16:52 46.61976 6.38154 39121 ft 438 kts 236°
2026-04-22 16:53 46.58126 6.31309 39118 ft 437 kts 236°
2026-04-22 16:53 46.54270 6.24471 39120 ft 436 kts 236°
2026-04-22 16:54 46.50421 6.17663 39120 ft 436 kts 236°
2026-04-22 16:54 46.46571 6.10869 39122 ft 435 kts 236°
2026-04-22 16:55 46.42725 6.04098 39129 ft 435 kts 236°
2026-04-22 16:55 46.38875 5.97337 39126 ft 435 kts 236°
2026-04-22 16:56 46.35025 5.90591 39128 ft 434 kts 236°
2026-04-22 16:56 46.31172 5.83861 39137 ft 434 kts 236°
2026-04-22 16:57 46.27313 5.77133 39109 ft 434 kts 236°
2026-04-22 16:57 46.23459 5.70431 39125 ft 434 kts 236°
2026-04-22 16:58 46.20244 5.64848 39126 ft 435 kts 236°
2026-04-22 16:58 46.15723 5.57020 39120 ft 434 kts 236°
2026-04-22 16:59 46.12212 5.50022 39127 ft 430 kts 241°
2026-04-22 16:59 46.08798 5.42928 39110 ft 430 kts 241°
2026-04-22 17:00 46.05391 5.35844 39109 ft 431 kts 241°
2026-04-22 17:00 46.00264 5.25212 39110 ft 431 kts 241°
2026-04-22 17:01 45.96842 5.18138 39112 ft 430 kts 241°
2026-04-22 17:01 45.93427 5.11096 39102 ft 429 kts 241°
2026-04-22 17:02 45.90008 5.04065 39102 ft 429 kts 241°
2026-04-22 17:02 45.86587 4.97045 39100 ft 429 kts 241°
2026-04-22 17:03 45.83155 4.90023 39099 ft 430 kts 241°
2026-04-22 17:03 45.79719 4.83008 39103 ft 430 kts 241°
2026-04-22 17:04 45.76280 4.76004 39095 ft 430 kts 241°
2026-04-22 17:04 45.72832 4.68996 39097 ft 431 kts 241°
2026-04-22 17:05 45.69380 4.62001 39111 ft 430 kts 241°
2026-04-22 17:05 45.65924 4.55011 39114 ft 430 kts 240°
2026-04-22 17:06 45.62463 4.48030 39116 ft 431 kts 240°
2026-04-22 17:06 45.59018 4.41098 39122 ft 431 kts 240°
2026-04-22 17:07 45.55542 4.34120 39133 ft 431 kts 240°
2026-04-22 17:07 45.52063 4.27154 39126 ft 431 kts 240°
2026-04-22 17:08 45.48576 4.20198 39127 ft 431 kts 240°
2026-04-22 17:08 45.45086 4.13249 39125 ft 431 kts 240°
2026-04-22 17:09 45.41594 4.06314 39130 ft 431 kts 240°
2026-04-22 17:09 45.38093 3.99380 39127 ft 431 kts 240°
2026-04-22 17:10 45.34589 3.92453 39132 ft 432 kts 240°
2026-04-22 17:10 45.31075 3.85525 39129 ft 433 kts 240°
2026-04-22 17:11 45.27548 3.78589 39128 ft 433 kts 240°
2026-04-22 17:11 45.24092 3.71618 39136 ft 432 kts 241°
2026-04-22 17:12 45.20652 3.64624 39132 ft 432 kts 241°
2026-04-22 17:12 45.17207 3.57647 39132 ft 432 kts 241°
2026-04-22 17:13 45.13756 3.50677 39125 ft 432 kts 241°
2026-04-22 17:13 45.10297 3.43706 39123 ft 433 kts 240°
2026-04-22 17:14 45.06852 3.36781 39120 ft 433 kts 240°
2026-04-22 17:14 45.03379 3.29816 39118 ft 433 kts 240°
2026-04-22 17:15 44.99904 3.22866 39108 ft 433 kts 240°
2026-04-22 17:15 44.96424 3.15922 39104 ft 433 kts 240°
2026-04-22 17:16 44.92941 3.08988 39095 ft 433 kts 240°
2026-04-22 17:16 44.89461 3.02078 39088 ft 432 kts 240°
2026-04-22 17:17 44.85976 2.95169 39077 ft 433 kts 240°
2026-04-22 17:17 44.82707 2.88098 39078 ft 431 kts 243°
2026-04-22 17:18 44.79454 2.81017 39065 ft 431 kts 242°
2026-04-22 17:18 44.76193 2.73960 39065 ft 430 kts 242°
2026-04-22 17:19 44.69648 2.59860 39052 ft 430 kts 242°
2026-04-22 17:20 44.63646 2.46987 39070 ft 430 kts 242°
2026-04-22 17:21 44.58719 2.36464 39063 ft 430 kts 241°
2026-04-22 17:22 44.53760 2.25912 39067 ft 430 kts 241°
2026-04-22 17:23 44.48815 2.15427 39067 ft 430 kts 241°
2026-04-22 17:23 44.43864 2.04967 39063 ft 429 kts 241°
2026-04-22 17:24 44.40560 1.98009 39064 ft 430 kts 240°
2026-04-22 17:24 44.37272 1.91099 39065 ft 429 kts 240°
2026-04-22 17:25 44.33959 1.84154 39065 ft 430 kts 240°
2026-04-22 17:25 44.30643 1.77215 39062 ft 429 kts 240°
2026-04-22 17:26 44.27399 1.70161 39064 ft 429 kts 242°
2026-04-22 17:26 44.24184 1.63154 39063 ft 429 kts 242°
2026-04-22 17:27 44.20962 1.56164 39065 ft 429 kts 242°
2026-04-22 17:27 44.17731 1.49169 39055 ft 429 kts 241°
2026-04-22 17:28 44.14500 1.42193 39050 ft 428 kts 242°
2026-04-22 17:28 44.11268 1.35230 39045 ft 428 kts 241°
2026-04-22 17:29 44.08052 1.28318 39035 ft 428 kts 241°
2026-04-22 17:29 44.04811 1.21369 39029 ft 429 kts 241°
2026-04-22 17:30 44.01564 1.14424 39027 ft 429 kts 241°
2026-04-22 17:30 43.98313 1.07488 39014 ft 428 kts 241°
2026-04-22 17:31 43.95062 1.00566 39032 ft 429 kts 241°
2026-04-22 17:31 43.91803 0.93643 39019 ft 428 kts 241°
2026-04-22 17:32 43.88467 0.86792 39009 ft 431 kts 233°
2026-04-22 17:32 43.84459 0.80570 39002 ft 433 kts 233°
2026-04-22 17:33 43.80444 0.74349 39026 ft 433 kts 232°
2026-04-22 17:33 43.76421 0.68141 39010 ft 433 kts 232°
2026-04-22 17:34 43.72392 0.61940 39032 ft 433 kts 232°
2026-04-22 17:34 43.68362 0.55750 39029 ft 433 kts 232°
2026-04-22 17:35 43.64331 0.49572 39045 ft 433 kts 232°
2026-04-22 17:35 43.60298 0.43404 39056 ft 433 kts 232°
2026-04-22 17:36 43.56257 0.37236 39054 ft 433 kts 232°
2026-04-22 17:36 43.52216 0.31084 39055 ft 433 kts 232°
2026-04-22 17:37 43.48170 0.24938 39065 ft 433 kts 232°
2026-04-22 17:37 43.44117 0.18793 39062 ft 433 kts 232°
2026-04-22 17:38 43.40065 0.12662 39066 ft 433 kts 232°
2026-04-22 17:38 43.36008 0.06538 39074 ft 433 kts 232°
2026-04-22 17:39 43.31950 0.00425 39072 ft 433 kts 232°
2026-04-22 17:40 43.25902 -0.08662 39080 ft 422 kts 232°
2026-04-22 17:40 43.21947 -0.14588 39075 ft 421 kts 232°
2026-04-22 17:41 43.17988 -0.20509 39075 ft 422 kts 232°
2026-04-22 17:41 43.14022 -0.26427 39072 ft 422 kts 232°
2026-04-22 17:42 43.10054 -0.32337 39074 ft 422 kts 232°
2026-04-22 17:42 43.06082 -0.38240 39072 ft 422 kts 232°
2026-04-22 17:43 43.02099 -0.44146 39053 ft 422 kts 232°
2026-04-22 17:43 42.98119 -0.50038 39079 ft 423 kts 232°
2026-04-22 17:44 42.94134 -0.55928 39063 ft 422 kts 232°
2026-04-22 17:44 42.90149 -0.61804 39066 ft 422 kts 232°
2026-04-22 17:44 42.88405 -0.64967 39014 ft 412 kts 248°
2026-04-22 17:45 42.87477 -0.68576 39069 ft 401 kts 261°
2026-04-22 17:45 42.86245 -0.76031 39055 ft 405 kts 262°
2026-04-22 17:46 42.85175 -0.83572 39053 ft 405 kts 263°
2026-04-22 17:46 42.84159 -0.91117 39066 ft 405 kts 263°
2026-04-22 17:47 42.83153 -0.98667 39052 ft 404 kts 263°
2026-04-22 17:47 42.82144 -1.06209 39052 ft 405 kts 263°
2026-04-22 17:48 42.81303 -1.12474 39051 ft 405 kts 263°
2026-04-22 17:48 42.80113 -1.21285 39062 ft 405 kts 263°
2026-04-22 17:49 42.79095 -1.28779 39053 ft 405 kts 263°
2026-04-22 17:49 42.78066 -1.36318 39055 ft 405 kts 263°
2026-04-22 17:50 42.77032 -1.43853 39054 ft 405 kts 263°
2026-04-22 17:50 42.75992 -1.51391 39067 ft 406 kts 263°
2026-04-22 17:51 42.74945 -1.58947 39069 ft 406 kts 263°
2026-04-22 17:51 42.73895 -1.66497 39073 ft 406 kts 263°
2026-04-22 17:52 42.72510 -1.73960 39082 ft 408 kts 257°
2026-04-22 17:52 42.70865 -1.81368 39068 ft 410 kts 257°
2026-04-22 17:53 42.69193 -1.88790 39050 ft 410 kts 257°
2026-04-22 17:53 42.67517 -1.96192 39047 ft 410 kts 257°
2026-04-22 17:54 42.65838 -2.03581 39036 ft 409 kts 256°
2026-04-22 17:54 42.64155 -2.10969 39027 ft 410 kts 256°
2026-04-22 17:55 42.62714 -2.17107 39010 ft 411 kts 255°
2026-04-22 17:55 42.60626 -2.25712 39001 ft 411 kts 255°
2026-04-22 17:56 42.58839 -2.33086 38985 ft 410 kts 255°
2026-04-22 17:56 42.57051 -2.40436 39015 ft 410 kts 255°
2026-04-22 17:57 42.55259 -2.47785 39025 ft 410 kts 255°
2026-04-22 17:57 42.53465 -2.55117 39000 ft 410 kts 255°
2026-04-22 17:58 42.51675 -2.62409 39023 ft 411 kts 255°
2026-04-22 17:58 42.49855 -2.69800 39029 ft 411 kts 255°
2026-04-22 17:59 42.48044 -2.77132 39038 ft 410 kts 255°
2026-04-22 17:59 42.46239 -2.84420 39034 ft 411 kts 255°
2026-04-22 18:00 42.44493 -2.90460 39051 ft 413 kts 249°
2026-04-22 18:00 42.41723 -2.98690 39050 ft 414 kts 249°
2026-04-22 18:01 42.39319 -3.05751 39053 ft 414 kts 248°
2026-04-22 18:01 42.36907 -3.12814 39054 ft 413 kts 248°
2026-04-22 18:02 42.34491 -3.19871 39049 ft 413 kts 248°
2026-04-22 18:02 42.32071 -3.26919 39043 ft 414 kts 248°
2026-04-22 18:03 42.29644 -3.33974 39048 ft 414 kts 248°
2026-04-22 18:03 42.27210 -3.41026 39048 ft 415 kts 248°
2026-04-22 18:04 42.25166 -3.46940 39047 ft 414 kts 248°
2026-04-22 18:04 42.22722 -3.53989 39046 ft 415 kts 248°
2026-04-22 18:05 42.20274 -3.61034 39048 ft 415 kts 247°
2026-04-22 18:05 42.17819 -3.68081 39044 ft 415 kts 247°
2026-04-22 18:06 42.15353 -3.75139 39047 ft 415 kts 246°
2026-04-22 18:06 42.12908 -3.82120 39044 ft 414 kts 246°
2026-04-22 18:07 42.10446 -3.89136 39045 ft 414 kts 245°
2026-04-22 18:07 42.07975 -3.96155 39043 ft 414 kts 245°
2026-04-22 18:08 42.05506 -4.03157 39042 ft 415 kts 246°
2026-04-22 18:08 42.03040 -4.10163 39035 ft 414 kts 248°
2026-04-22 18:09 42.00816 -4.17304 39039 ft 414 kts 248°
2026-04-22 18:09 41.98562 -4.24423 39034 ft 414 kts 248°
2026-04-22 18:10 41.96296 -4.31540 39034 ft 414 kts 248°
2026-04-22 18:10 41.94025 -4.38652 39028 ft 414 kts 248°
2026-04-22 18:11 41.91751 -4.45755 39029 ft 414 kts 248°
2026-04-22 18:11 41.89467 -4.52870 39030 ft 415 kts 248°
2026-04-22 18:12 41.87179 -4.59982 39015 ft 415 kts 247°
2026-04-22 18:12 41.84884 -4.67092 39027 ft 415 kts 247°
2026-04-22 18:13 41.82586 -4.74194 39024 ft 415 kts 247°
2026-04-22 18:13 41.80286 -4.81292 39028 ft 415 kts 247°
2026-04-22 18:14 41.77971 -4.88383 39064 ft 416 kts 247°
2026-04-22 18:14 41.75660 -4.95487 39018 ft 415 kts 247°
2026-04-22 18:15 41.73341 -5.02581 39014 ft 416 kts 247°
2026-04-22 18:15 41.71016 -5.09675 39018 ft 416 kts 247°
2026-04-22 18:16 41.68684 -5.16771 39018 ft 416 kts 247°
2026-04-22 18:16 41.66350 -5.23853 39016 ft 416 kts 246°
2026-04-22 18:17 41.64012 -5.30930 39016 ft 416 kts 246°
2026-04-22 18:17 41.61669 -5.38005 39017 ft 416 kts 246°
2026-04-22 18:18 41.59320 -5.45079 39016 ft 416 kts 246°
2026-04-22 18:18 41.56971 -5.52138 39016 ft 415 kts 246°
2026-04-22 18:19 41.54622 -5.59181 39015 ft 415 kts 246°
2026-04-22 18:19 41.52971 -5.66478 39028 ft 412 kts 264°
2026-04-22 18:20 41.52335 -5.74124 39027 ft 415 kts 263°
2026-04-22 18:20 41.51749 -5.81795 39010 ft 415 kts 264°
2026-04-22 18:21 41.51187 -5.89458 38252 ft 416 kts 264°
2026-04-22 18:21 41.50906 -5.93295 37704 ft 413 kts 263°
2026-04-22 18:21 41.50627 -5.97082 37285 ft 408 kts 263°
2026-04-22 18:21 41.50354 -6.00780 36818 ft 404 kts 263°
2026-04-22 18:22 41.50078 -6.04498 36306 ft 402 kts 263°
2026-04-22 18:22 41.49802 -6.08192 35792 ft 399 kts 263°
2026-04-22 18:22 41.49524 -6.11914 35284 ft 397 kts 263°
2026-04-22 18:22 41.49250 -6.15557 34793 ft 394 kts 263°
2026-04-22 18:23 41.48977 -6.19174 34316 ft 391 kts 263°
2026-04-22 18:23 41.48704 -6.22772 33845 ft 388 kts 263°
2026-04-22 18:23 41.48433 -6.26340 33382 ft 385 kts 263°
2026-04-22 18:24 41.47890 -6.33419 32354 ft 382 kts 263°
2026-04-22 18:24 41.47620 -6.36928 31933 ft 378 kts 263°
2026-04-22 18:24 41.46418 -6.43607 31088 ft 370 kts 254°
2026-04-22 18:25 41.45765 -6.46898 30685 ft 366 kts 255°
2026-04-22 18:25 41.45130 -6.50177 30245 ft 364 kts 255°
2026-04-22 18:25 41.44508 -6.53431 29805 ft 362 kts 255°
2026-04-22 18:26 41.43284 -6.59884 28950 ft 357 kts 255°
2026-04-22 18:26 41.42679 -6.63073 28537 ft 354 kts 255°
2026-04-22 18:26 41.42077 -6.66243 28121 ft 351 kts 255°
2026-04-22 18:26 41.41480 -6.69386 27718 ft 349 kts 255°
2026-04-22 18:27 41.40886 -6.72506 27315 ft 346 kts 255°
2026-04-22 18:27 41.40296 -6.75604 26930 ft 344 kts 255°
2026-04-22 18:27 41.39709 -6.78677 26545 ft 341 kts 255°
2026-04-22 18:27 41.39126 -6.81726 26180 ft 339 kts 255°
2026-04-22 18:28 41.38546 -6.84754 25793 ft 337 kts 255°
2026-04-22 18:28 41.37969 -6.87765 25438 ft 334 kts 255°
2026-04-22 18:28 41.37395 -6.90749 25072 ft 331 kts 255°
2026-04-22 18:28 41.36828 -6.93698 24721 ft 329 kts 255°
2026-04-22 18:29 41.36260 -6.96644 24357 ft 326 kts 255°
2026-04-22 18:29 41.35699 -6.99551 24016 ft 323 kts 255°
2026-04-22 18:29 41.35141 -7.02439 23677 ft 320 kts 255°
2026-04-22 18:29 41.34587 -7.05301 23339 ft 318 kts 255°
2026-04-22 18:30 41.34037 -7.08137 22994 ft 315 kts 255°
2026-04-22 18:30 41.32955 -7.13714 22342 ft 308 kts 255°
2026-04-22 18:30 41.32420 -7.16459 22006 ft 305 kts 254°
2026-04-22 18:31 41.31889 -7.19181 21690 ft 302 kts 254°
2026-04-22 18:31 41.31363 -7.21876 21373 ft 300 kts 254°
2026-04-22 18:31 41.30838 -7.24561 21062 ft 302 kts 254°
2026-04-22 18:31 41.30306 -7.27280 20736 ft 307 kts 254°
2026-04-22 18:32 41.29765 -7.30040 20410 ft 309 kts 254°
2026-04-22 18:32 41.29223 -7.32803 20088 ft 309 kts 254°
2026-04-22 18:32 41.28680 -7.35566 19761 ft 308 kts 253°
2026-04-22 18:32 41.28138 -7.38319 19439 ft 307 kts 253°
2026-04-22 18:33 41.27598 -7.41059 19084 ft 305 kts 253°
2026-04-22 18:33 41.27064 -7.43768 18739 ft 303 kts 253°
2026-04-22 18:33 41.26532 -7.46467 18416 ft 300 kts 253°
2026-04-22 18:33 41.26004 -7.49139 18116 ft 297 kts 253°
2026-04-22 18:34 41.25481 -7.51781 17809 ft 294 kts 253°
2026-04-22 18:34 41.24963 -7.54397 17501 ft 292 kts 253°
2026-04-22 18:34 41.24448 -7.56992 17204 ft 289 kts 253°
2026-04-22 18:34 41.23939 -7.59556 16898 ft 286 kts 253°
2026-04-22 18:35 41.23429 -7.62119 16583 ft 290 kts 253°
2026-04-22 18:35 41.22909 -7.64731 16277 ft 295 kts 253°
2026-04-22 18:35 41.22383 -7.67371 15966 ft 297 kts 253°
2026-04-22 18:35 41.21854 -7.70020 15655 ft 297 kts 253°
2026-04-22 18:36 41.21326 -7.72664 15342 ft 295 kts 253°
2026-04-22 18:36 41.20801 -7.75285 15027 ft 293 kts 253°
2026-04-22 18:36 41.20280 -7.77885 14733 ft 290 kts 253°
2026-04-22 18:36 41.19761 -7.80471 14417 ft 288 kts 253°
2026-04-22 18:37 41.19247 -7.83028 14104 ft 286 kts 253°
2026-04-22 18:37 41.18735 -7.85571 13798 ft 284 kts 253°
2026-04-22 18:37 41.18392 -7.87275 13596 ft 283 kts 252°
2026-04-22 18:37 41.17549 -7.90505 13180 ft 278 kts 242°
2026-04-22 18:38 41.16783 -7.92918 12701 ft 283 kts 248°
2026-04-22 18:38 41.16085 -7.95396 12136 ft 291 kts 247°
2026-04-22 18:38 41.15354 -7.97939 11635 ft 296 kts 247°
2026-04-22 18:39 41.13870 -8.03003 10957 ft 294 kts 246°
2026-04-22 18:39 41.13126 -8.05518 10624 ft 292 kts 246°
2026-04-22 18:39 41.12385 -8.08018 10297 ft 290 kts 246°
2026-04-22 18:39 41.11651 -8.10488 10060 ft 285 kts 246°
2026-04-22 18:40 41.10930 -8.12908 9805 ft 281 kts 246°
2026-04-22 18:40 41.10213 -8.15315 9464 ft 281 kts 246°
2026-04-22 18:40 41.09495 -8.17721 9143 ft 280 kts 246°
2026-04-22 18:40 41.08779 -8.20117 8816 ft 279 kts 246°
2026-04-22 18:41 41.08067 -8.22498 8512 ft 277 kts 246°
2026-04-22 18:41 41.07358 -8.24866 8200 ft 276 kts 246°
2026-04-22 18:41 41.06653 -8.27221 7903 ft 275 kts 246°
2026-04-22 18:41 41.05949 -8.29570 7590 ft 274 kts 246°
2026-04-22 18:42 41.05247 -8.31910 7288 ft 273 kts 246°
2026-04-22 18:42 41.04548 -8.34238 6977 ft 271 kts 246°
2026-04-22 18:42 41.03853 -8.36552 6670 ft 270 kts 246°
2026-04-22 18:42 41.03159 -8.38855 6369 ft 269 kts 246°
2026-04-22 18:43 41.02469 -8.41151 6072 ft 268 kts 246°
2026-04-22 18:43 41.01780 -8.43439 5767 ft 267 kts 246°
2026-04-22 18:43 41.01092 -8.45719 5468 ft 266 kts 246°
2026-04-22 18:43 41.00414 -8.47987 5178 ft 264 kts 249°
2026-04-22 18:44 41.00101 -8.49545 4947 ft 266 kts 257°
2026-04-22 18:44 40.99760 -8.51952 4604 ft 266 kts 258°
2026-04-22 18:44 40.99411 -8.54364 4300 ft 266 kts 257°
2026-04-22 18:44 40.99076 -8.56735 4140 ft 258 kts 262°
2026-04-22 18:45 40.99272 -8.59033 4045 ft 249 kts 291°
2026-04-22 18:45 41.00681 -8.61268 3888 ft 237 kts 328°
2026-04-22 18:45 41.02189 -8.62028 3746 ft 227 kts 346°
2026-04-22 18:45 41.03213 -8.62351 3660 ft 221 kts 346°
2026-04-22 18:46 41.04685 -8.62799 3523 ft 213 kts 347°
2026-04-22 18:46 41.06095 -8.63213 3332 ft 201 kts 347°
2026-04-22 18:46 41.07413 -8.63590 3206 ft 191 kts 347°
2026-04-22 18:46 41.08742 -8.63963 3165 ft 193 kts 347°
2026-04-22 18:47 41.10063 -8.64329 3137 ft 194 kts 348°
2026-04-22 18:47 41.11387 -8.64678 3047 ft 194 kts 349°
2026-04-22 18:47 41.12708 -8.65003 2985 ft 193 kts 349°
2026-04-22 18:47 41.14030 -8.65331 2615 ft 191 kts 349°
2026-04-22 18:48 41.15307 -8.65628 2102 ft 182 kts 349°
2026-04-22 18:48 41.16509 -8.65915 1637 ft 171 kts 347°
2026-04-22 18:48 41.17638 -8.66208 1322 ft 153 kts 346°
2026-04-22 18:48 41.18642 -8.66497 1022 ft 145 kts 346°
2026-04-22 18:49 41.19620 -8.66779 823 ft 144 kts 347°
2026-04-22 18:49 41.20619 -8.67031 690 ft 147 kts 348°
2026-04-22 18:49 41.21620 -8.67294 590 ft 147 kts 346°
2026-04-22 18:49 41.22662 -8.67566 402 ft 151 kts 348°
2026-04-22 18:50 41.23680 -8.67827 249 ft 143 kts 348°
2026-04-22 18:50 41.24557 -8.68059 240 ft 109 kts 348°
2026-04-22 18:50 41.25153 -8.68214 236 ft 65 kts 349°
2026-04-22 18:50 41.25448 -8.68292 236 ft 21 kts 349°
2026-04-22 18:51 41.25556 -8.68316 237 ft 12 kts
2026-04-22 18:51 41.25592 -8.68277 238 ft 5 kts 75°
2026-04-22 18:51 41.25601 -8.68227 238 ft 7 kts 81°
2026-04-22 18:51 41.25607 -8.68174 238 ft 0 kts 81°
2026-04-22 18:52 41.25607 -8.68173 238 ft 1 kts 81°
2026-04-22 18:52 41.25610 -8.68131 238 ft 6 kts 94°
2026-04-22 18:53 41.25604 -8.68111 237 ft 1 kts 122°
2026-04-22 18:53 41.25574 -8.68091 237 ft 10 kts 168°
2026-04-22 18:53 41.25471 -8.68066 237 ft 20 kts 169°
2026-04-22 18:53 41.25324 -8.68027 237 ft 17 kts 169°
2026-04-22 18:54 41.25180 -8.67989 237 ft 15 kts 170°
2026-04-22 18:54 41.25041 -8.67954 237 ft 25 kts 169°
2026-04-22 18:54 41.24872 -8.67901 237 ft 26 kts 156°
2026-04-22 18:54 41.24695 -8.67807 238 ft 20 kts 170°
2026-04-22 18:55 41.24552 -8.67770 238 ft 21 kts 169°
2026-04-22 18:55 41.24394 -8.67729 238 ft 20 kts 169°
2026-04-22 18:55 41.24280 -8.67667 237 ft 12 kts 130°
2026-04-22 18:55 41.24271 -8.67651 237 ft 0 kts 123°
2026-04-22 18:57 41.24260 -8.67628 237 ft 5 kts 126°
2026-04-22 18:57 41.24223 -8.67583 237 ft 9 kts 150°
2026-04-22 18:57 41.24153 -8.67561 237 ft 13 kts 169°
2026-04-22 18:57 41.24048 -8.67533 237 ft 18 kts 168°
2026-04-22 18:58 41.23919 -8.67499 237 ft 21 kts 168°
2026-04-22 18:58 41.23781 -8.67463 237 ft 13 kts 168°
2026-04-22 18:58 41.23716 -8.67384 237 ft 12 kts 125°
2026-04-22 18:58 41.23680 -8.67343 237 ft 1 kts 136°
2026-04-22 18:59 41.23679 -8.67330 237 ft 1 kts 84°
2026-04-22 18:59 41.23681 -8.67290 237 ft 7 kts 82°
2026-04-22 18:59 41.23686 -8.67255 237 ft 0 kts 78°